Time,TemperatureF,DewpointF,PressureIn,WindDirection,WindDirectionDegrees,WindSpeedMPH,WindSpeedGustMPH,Humidity,HourlyPrecipIn,Conditions,Clouds,dailyrainin,SoftwareType,DateUTC
2013-04-16 00:02:00,45.0,40.0,-100.00,North,0,0.0,0.0,82,-99.99,,,-99.99,,2013-04-16 05:02:00,
2013-04-16 00:12:00,45.0,39.0,-100.00,North,5,0.0,0.0,80,-99.99,,,-99.99,,2013-04-16 05:12:00,
2013-04-16 00:22:00,44.0,40.0,-100.00,NE,45,0.0,0.0,85,-99.99,,,-99.99,,2013-04-16 05:22:00,
2013-04-16 00:32:00,44.0,40.0,-100.00,NE,45,0.0,0.0,85,-99.99,,,-99.99,,2013-04-16 05:32:00,
2013-04-16 00:42:00,44.0,41.0,-100.00,NNE,20,0.0,0.0,89,-99.99,,,-99.99,,2013-04-16 05:42:00,
2013-04-16 00:52:00,44.0,41.0,-100.00,NNE,15,0.0,0.0,89,-99.99,,,-99.99,,2013-04-16 05:52:00,
2013-04-16 01:02:00,44.0,41.0,-100.00,NNE,15,0.0,0.0,89,-99.99,,,-99.99,,2013-04-16 06:02:00,
2013-04-16 01:12:00,44.0,41.0,-100.00,North,0,0.0,0.0,90,-99.99,,,-99.99,,2013-04-16 06:12:00,
2013-04-16 01:22:00,44.0,41.0,-100.00,NNE,20,0.0,0.0,90,-99.99,,,-99.99,,2013-04-16 06:22:00,
2013-04-16 01:32:00,44.0,41.0,-100.00,NNE,20,0.0,0.0,90,-99.99,,,-99.99,,2013-04-16 06:32:00,
2013-04-16 01:42:00,44.0,40.0,-100.00,NNE,25,0.0,0.0,88,-99.99,,,-99.99,,2013-04-16 06:42:00,
2013-04-16 01:52:00,44.0,40.0,-100.00,NNE,20,0.0,0.0,86,-99.99,,,-99.99,,2013-04-16 06:52:00,
2013-04-16 02:02:00,44.0,40.0,-100.00,NNE,20,0.0,0.0,86,-99.99,,,-99.99,,2013-04-16 07:02:00,
2013-04-16 02:12:00,44.0,40.0,-100.00,North,10,0.0,0.0,87,-99.99,,,-99.99,,2013-04-16 07:12:00,
2013-04-16 02:22:00,44.0,41.0,-100.00,SW,225,0.0,0.0,89,-99.99,,,-99.99,,2013-04-16 07:22:00,
2013-04-16 02:32:00,44.0,41.0,-100.00,SW,225,0.0,0.0,89,-99.99,,,-99.99,,2013-04-16 07:32:00,
2013-04-16 02:42:00,43.0,41.0,-100.00,North,0,0.0,0.0,90,-99.99,,,-99.99,,2013-04-16 07:42:00,
2013-04-16 02:53:00,43.0,41.0,-100.00,West,280,0.0,0.0,90,-99.99,,,-99.99,,2013-04-16 07:53:00,
2013-04-16 03:02:00,43.0,41.0,-100.00,West,280,0.0,0.0,90,-99.99,,,-99.99,,2013-04-16 08:02:00,
2013-04-16 03:12:00,43.0,40.0,-100.00,North,5,0.0,0.0,90,-99.99,,,-99.99,,2013-04-16 08:12:00,
2013-04-16 03:22:00,43.0,40.0,-100.00,North,0,0.0,0.0,90,-99.99,,,-99.99,,2013-04-16 08:22:00,
2013-04-16 03:32:00,43.0,40.0,-100.00,North,0,0.0,0.0,90,-99.99,,,-99.99,,2013-04-16 08:32:00,
2013-04-16 03:42:00,43.0,40.0,-100.00,North,0,0.0,0.0,90,-99.99,,,-99.99,,2013-04-16 08:42:00,
2013-04-16 03:52:00,42.0,40.0,-100.00,North,0,0.0,0.0,96,-99.99,,,-99.99,,2013-04-16 08:52:00,
2013-04-16 04:02:00,42.0,40.0,-100.00,North,0,0.0,0.0,96,-99.99,,,-99.99,,2013-04-16 09:02:00,
2013-04-16 04:12:00,42.0,41.0,-100.00,North,0,0.0,0.0,98,-99.99,,,-99.99,,2013-04-16 09:12:00,
2013-04-16 04:22:00,42.0,41.0,-100.00,NW,325,0.0,0.0,99,-99.99,,,-99.99,,2013-04-16 09:22:00,
2013-04-16 04:33:00,42.0,41.0,-100.00,NW,325,0.0,0.0,99,-99.99,,,-99.99,,2013-04-16 09:33:00,
2013-04-16 04:42:00,42.0,41.0,-100.00,NNE,20,0.0,0.0,99,-99.99,,,-99.99,,2013-04-16 09:42:00,
2013-04-16 04:53:00,42.0,41.0,-100.00,NNW,330,0.0,0.0,99,-99.99,,,-99.99,,2013-04-16 09:53:00,
2013-04-16 05:03:00,42.0,41.0,-100.00,NNW,330,0.0,0.0,99,-99.99,,,-99.99,,2013-04-16 10:03:00,
2013-04-16 05:13:00,42.0,41.0,-100.00,North,10,0.0,0.0,99,-99.99,,,-99.99,,2013-04-16 10:13:00,
2013-04-16 05:23:00,42.0,41.0,-100.00,North,0,0.0,0.0,99,-99.99,,,-99.99,,2013-04-16 10:23:00,
2013-04-16 05:33:00,42.0,41.0,-100.00,North,0,0.0,0.0,99,-99.99,,,-99.99,,2013-04-16 10:33:00,
2013-04-16 05:42:00,42.0,41.0,-100.00,North,0,0.0,0.0,98,-99.99,,,-99.99,,2013-04-16 10:42:00,
2013-04-16 05:53:00,42.0,41.0,-100.00,North,5,0.0,0.0,97,-99.99,,,-99.99,,2013-04-16 10:53:00,
2013-04-16 06:02:00,42.0,41.0,-100.00,North,5,0.0,0.0,97,-99.99,,,-99.99,,2013-04-16 11:02:00,
2013-04-16 06:12:00,42.0,41.0,-100.00,North,0,0.0,0.0,96,-99.99,,,-99.99,,2013-04-16 11:12:00,
2013-04-16 06:22:00,42.0,41.0,-100.00,NNW,340,0.0,0.0,96,-99.99,,,-99.99,,2013-04-16 11:22:00,
2013-04-16 06:32:00,42.0,41.0,-100.00,NNW,340,0.0,0.0,96,-99.99,,,-99.99,,2013-04-16 11:32:00,
2013-04-16 06:42:00,42.0,41.0,-100.00,North,10,0.0,0.0,96,-99.99,,,-99.99,,2013-04-16 11:42:00,
2013-04-16 06:53:00,42.0,41.0,-100.00,NNE,30,0.0,0.0,97,-99.99,,,-99.99,,2013-04-16 11:53:00,
2013-04-16 07:02:00,42.0,41.0,-100.00,NNE,30,0.0,0.0,97,-99.99,,,-99.99,,2013-04-16 12:02:00,
2013-04-16 07:12:00,41.0,40.0,-100.00,NE,45,0.0,0.0,95,-99.99,,,-99.99,,2013-04-16 12:12:00,
2013-04-16 07:22:00,41.0,38.0,-100.00,NNE,20,0.0,0.0,90,-99.99,,,-99.99,,2013-04-16 12:22:00,
2013-04-16 07:32:00,41.0,38.0,-100.00,NNE,20,0.0,0.0,90,-99.99,,,-99.99,,2013-04-16 12:32:00,
2013-04-16 07:42:00,41.0,38.0,-100.00,NNE,30,0.0,0.0,90,-99.99,,,-99.99,,2013-04-16 12:42:00,
2013-04-16 07:52:00,41.0,38.0,-100.00,NE,55,0.0,0.0,90,-99.99,,,-99.99,,2013-04-16 12:52:00,
2013-04-16 08:02:00,41.0,38.0,-100.00,NE,55,0.0,0.0,90,-99.99,,,-99.99,,2013-04-16 13:02:00,
2013-04-16 08:12:00,41.0,38.0,-100.00,NE,50,0.0,0.0,90,-99.99,,,-99.99,,2013-04-16 13:12:00,
2013-04-16 08:22:00,41.0,38.0,-100.00,NE,40,0.0,0.0,88,-99.99,,,-99.99,,2013-04-16 13:22:00,
2013-04-16 08:32:00,41.0,38.0,-100.00,NE,40,0.0,0.0,88,-99.99,,,-99.99,,2013-04-16 13:32:00,
2013-04-16 08:42:00,41.0,38.0,-100.00,NE,55,0.0,0.0,88,-99.99,,,-99.99,,2013-04-16 13:42:00,
2013-04-16 08:52:00,41.0,37.0,-100.00,NE,40,0.0,0.0,86,-99.99,,,-99.99,,2013-04-16 13:52:00,
2013-04-16 09:02:00,41.0,37.0,-100.00,NE,40,0.0,0.0,86,-99.99,,,-99.99,,2013-04-16 14:02:00,
2013-04-16 09:12:00,41.0,36.0,-100.00,NE,40,0.0,0.0,83,-99.99,,,-99.99,,2013-04-16 14:12:00,
2013-04-16 09:22:00,41.0,36.0,-100.00,NNE,25,0.0,0.0,82,-99.99,,,-99.99,,2013-04-16 14:22:00,
2013-04-16 09:32:00,41.0,36.0,-100.00,NNE,25,0.0,0.0,82,-99.99,,,-99.99,,2013-04-16 14:32:00,
2013-04-16 09:42:00,42.0,37.0,-100.00,NE,50,0.0,0.0,80,-99.99,,,-99.99,,2013-04-16 14:42:00,
2013-04-16 09:52:00,41.0,36.0,-100.00,NNE,20,0.0,0.0,82,-99.99,,,-99.99,,2013-04-16 14:52:00,
2013-04-16 10:02:00,41.0,36.0,-100.00,NNE,20,0.0,0.0,82,-99.99,,,-99.99,,2013-04-16 15:02:00,
2013-04-16 10:12:00,42.0,37.0,-100.00,NNE,20,0.0,0.0,82,-99.99,,,-99.99,,2013-04-16 15:12:00,
2013-04-16 10:22:00,42.0,37.0,-100.00,NNE,30,0.0,0.0,81,-99.99,,,-99.99,,2013-04-16 15:22:00,
2013-04-16 10:33:00,42.0,37.0,-100.00,NNE,30,0.0,0.0,81,-99.99,,,-99.99,,2013-04-16 15:33:00,
2013-04-16 10:43:00,42.0,37.0,-100.00,NNE,25,0.0,0.0,80,-99.99,,,-99.99,,2013-04-16 15:43:00,
2013-04-16 10:53:00,43.0,37.0,-100.00,NNE,15,0.0,0.0,80,-99.99,,,-99.99,,2013-04-16 15:53:00,
2013-04-16 11:03:00,43.0,37.0,-100.00,NNE,15,0.0,0.0,80,-99.99,,,-99.99,,2013-04-16 16:03:00,
2013-04-16 11:13:00,43.0,36.0,-100.00,NE,40,0.0,0.0,76,-99.99,,,-99.99,,2013-04-16 16:13:00,
2013-04-16 11:23:00,43.0,37.0,-100.00,NE,35,0.0,0.0,78,-99.99,,,-99.99,,2013-04-16 16:23:00,
2013-04-16 11:32:00,43.0,37.0,-100.00,NE,35,0.0,0.0,78,-99.99,,,-99.99,,2013-04-16 16:32:00,
2013-04-16 11:42:00,44.0,37.0,-100.00,NE,40,0.0,0.0,78,-99.99,,,-99.99,,2013-04-16 16:42:00,
2013-04-16 11:53:00,45.0,38.0,-100.00,NNE,15,0.0,0.0,77,-99.99,,,-99.99,,2013-04-16 16:53:00,
2013-04-16 12:02:00,45.0,38.0,-100.00,NNE,15,0.0,0.0,77,-99.99,,,-99.99,,2013-04-16 17:02:00,
2013-04-16 12:12:00,45.0,38.0,-100.00,NNE,15,0.0,0.0,75,-99.99,,,-99.99,,2013-04-16 17:12:00,
2013-04-16 12:22:00,46.0,37.0,-100.00,NE,50,0.0,0.0,71,-99.99,,,-99.99,,2013-04-16 17:22:00,
2013-04-16 12:32:00,46.0,37.0,-100.00,NE,50,0.0,0.0,71,-99.99,,,-99.99,,2013-04-16 17:32:00,
2013-04-16 12:43:00,47.0,38.0,-100.00,NE,40,0.0,0.0,70,-99.99,,,-99.99,,2013-04-16 17:43:00,
2013-04-16 12:53:00,48.0,38.0,-100.00,NE,55,0.0,0.0,69,-99.99,,,-99.99,,2013-04-16 17:53:00,
2013-04-16 13:02:00,48.0,38.0,-100.00,NE,55,0.0,0.0,69,-99.99,,,-99.99,,2013-04-16 18:02:00,
2013-04-16 13:12:00,49.0,39.0,-100.00,NE,50,0.0,0.0,67,-99.99,,,-99.99,,2013-04-16 18:12:00,
2013-04-16 13:22:00,48.0,38.0,-100.00,NNE,20,0.0,0.0,67,-99.99,,,-99.99,,2013-04-16 18:22:00,
2013-04-16 13:32:00,48.0,38.0,-100.00,NNE,20,0.0,0.0,67,-99.99,,,-99.99,,2013-04-16 18:32:00,
2013-04-16 13:42:00,49.0,39.0,-100.00,NE,35,0.0,0.0,67,-99.99,,,-99.99,,2013-04-16 18:42:00,
2013-04-16 13:52:00,50.0,39.0,-100.00,NNE,20,0.0,0.0,65,-99.99,,,-99.99,,2013-04-16 18:52:00,
2013-04-16 14:02:00,50.0,39.0,-100.00,NNE,20,0.0,0.0,65,-99.99,,,-99.99,,2013-04-16 19:02:00,
2013-04-16 14:12:00,49.0,38.0,-100.00,North,0,0.0,0.0,65,-99.99,,,-99.99,,2013-04-16 19:12:00,
2013-04-16 14:22:00,50.0,38.0,-100.00,NE,50,0.0,0.0,64,-99.99,,,-99.99,,2013-04-16 19:22:00,
2013-04-16 14:32:00,50.0,38.0,-100.00,NE,50,0.0,0.0,64,-99.99,,,-99.99,,2013-04-16 19:32:00,
2013-04-16 14:42:00,50.0,39.0,-100.00,NE,40,0.0,0.0,66,-99.99,,,-99.99,,2013-04-16 19:42:00,
2013-04-16 14:52:00,49.0,39.0,-100.00,NE,35,0.0,0.0,66,-99.99,,,-99.99,,2013-04-16 19:52:00,
2013-04-16 15:02:00,49.0,39.0,-100.00,NE,35,0.0,0.0,66,-99.99,,,-99.99,,2013-04-16 20:02:00,
2013-04-16 15:12:00,50.0,39.0,-100.00,NNE,25,0.0,0.0,67,-99.99,,,-99.99,,2013-04-16 20:12:00,
2013-04-16 15:22:00,50.0,39.0,-100.00,NE,45,0.0,0.0,65,-99.99,,,-99.99,,2013-04-16 20:22:00,
2013-04-16 15:32:00,50.0,39.0,-100.00,NE,45,0.0,0.0,65,-99.99,,,-99.99,,2013-04-16 20:32:00,
2013-04-16 15:42:00,51.0,39.0,-100.00,NE,35,0.0,0.0,64,-99.99,,,-99.99,,2013-04-16 20:42:00,
2013-04-16 15:52:00,51.0,39.0,-100.00,NNE,25,0.0,0.0,64,-99.99,,,-99.99,,2013-04-16 20:52:00,
2013-04-16 16:02:00,51.0,39.0,-100.00,NNE,25,0.0,0.0,64,-99.99,,,-99.99,,2013-04-16 21:02:00,
2013-04-16 16:12:00,51.0,39.0,-100.00,NE,40,0.0,0.0,64,-99.99,,,-99.99,,2013-04-16 21:12:00,
2013-04-16 16:22:00,51.0,39.0,-100.00,NE,50,0.0,0.0,64,-99.99,,,-99.99,,2013-04-16 21:22:00,
2013-04-16 16:32:00,51.0,39.0,-100.00,NE,50,0.0,0.0,64,-99.99,,,-99.99,,2013-04-16 21:32:00,
2013-04-16 16:43:00,51.0,39.0,-100.00,NE,50,0.0,0.0,64,-99.99,,,-99.99,,2013-04-16 21:43:00,
2013-04-16 16:53:00,51.0,40.0,-100.00,NNE,15,0.0,0.0,66,-99.99,,,-99.99,,2013-04-16 21:53:00,
2013-04-16 17:03:00,51.0,40.0,-100.00,NNE,15,0.0,0.0,66,-99.99,,,-99.99,,2013-04-16 22:03:00,
2013-04-16 17:13:00,51.0,40.0,-100.00,NE,40,0.0,0.0,66,-99.99,,,-99.99,,2013-04-16 22:13:00,
2013-04-16 17:22:00,51.0,40.0,-100.00,NE,40,0.0,0.0,65,-99.99,,,-99.99,,2013-04-16 22:22:00,
2013-04-16 17:33:00,51.0,40.0,-100.00,NE,40,0.0,0.0,65,-99.99,,,-99.99,,2013-04-16 22:33:00,
2013-04-16 17:42:00,50.0,39.0,-100.00,NNE,20,0.0,0.0,65,-99.99,,,-99.99,,2013-04-16 22:42:00,
2013-04-16 17:52:00,51.0,40.0,-100.00,NE,50,0.0,0.0,67,-99.99,,,-99.99,,2013-04-16 22:52:00,
2013-04-16 18:02:00,51.0,40.0,-100.00,NE,50,0.0,0.0,67,-99.99,,,-99.99,,2013-04-16 23:02:00,
2013-04-16 18:12:00,51.0,40.0,-100.00,NE,45,0.0,0.0,67,-99.99,,,-99.99,,2013-04-16 23:12:00,
2013-04-16 18:22:00,51.0,40.0,-100.00,NE,45,0.0,0.0,66,-99.99,,,-99.99,,2013-04-16 23:22:00,
2013-04-16 18:32:00,51.0,40.0,-100.00,NE,45,0.0,0.0,66,-99.99,,,-99.99,,2013-04-16 23:32:00,
2013-04-16 18:42:00,50.0,39.0,-100.00,NE,40,0.0,0.0,64,-99.99,,,-99.99,,2013-04-16 23:42:00,
2013-04-16 18:52:00,51.0,39.0,-100.00,NE,55,0.0,0.0,65,-99.99,,,-99.99,,2013-04-16 23:52:00,
2013-04-16 19:02:00,51.0,39.0,-100.00,NE,55,0.0,0.0,65,-99.99,,,-99.99,,2013-04-17 00:02:00,
2013-04-16 19:12:00,50.0,39.0,-100.00,NE,55,0.0,0.0,66,-99.99,,,-99.99,,2013-04-17 00:12:00,
2013-04-16 19:22:00,50.0,39.0,-100.00,NE,55,0.0,0.0,64,-99.99,,,-99.99,,2013-04-17 00:22:00,
2013-04-16 19:32:00,50.0,39.0,-100.00,NE,55,0.0,0.0,64,-99.99,,,-99.99,,2013-04-17 00:32:00,
2013-04-16 19:42:00,50.0,39.0,-100.00,ENE,65,0.0,0.0,65,-99.99,,,-99.99,,2013-04-17 00:42:00,
2013-04-16 19:52:00,50.0,40.0,-100.00,NE,55,0.0,0.0,67,-99.99,,,-99.99,,2013-04-17 00:52:00,
2013-04-16 20:02:00,50.0,40.0,-100.00,NE,55,0.0,0.0,67,-99.99,,,-99.99,,2013-04-17 01:02:00,
2013-04-16 20:12:00,50.0,40.0,-100.00,NE,55,0.0,0.0,67,-99.99,,,-99.99,,2013-04-17 01:12:00,
2013-04-16 20:22:00,50.0,39.0,-100.00,NE,55,0.0,0.0,67,-99.99,,,-99.99,,2013-04-17 01:22:00,
2013-04-16 20:32:00,50.0,39.0,-100.00,NE,55,0.0,0.0,67,-99.99,,,-99.99,,2013-04-17 01:32:00,
2013-04-16 20:42:00,50.0,39.0,-100.00,ENE,70,0.0,0.0,67,-99.99,,,-99.99,,2013-04-17 01:42:00,
2013-04-16 20:52:00,50.0,40.0,-100.00,ENE,60,0.0,0.0,69,-99.99,,,-99.99,,2013-04-17 01:52:00,
2013-04-16 21:02:00,50.0,40.0,-100.00,ENE,60,0.0,0.0,69,-99.99,,,-99.99,,2013-04-17 02:02:00,
2013-04-16 21:12:00,50.0,40.0,-100.00,NE,55,0.0,0.0,69,-99.99,,,-99.99,,2013-04-17 02:12:00,
2013-04-16 21:22:00,50.0,40.0,-100.00,NE,55,0.0,0.0,70,-99.99,,,-99.99,,2013-04-17 02:22:00,
2013-04-16 21:32:00,50.0,40.0,-100.00,NE,55,0.0,0.0,70,-99.99,,,-99.99,,2013-04-17 02:32:00,
2013-04-16 21:42:00,50.0,41.0,-100.00,ENE,60,0.0,0.0,71,-99.99,,,-99.99,,2013-04-17 02:42:00,
2013-04-16 21:52:00,49.0,41.0,-100.00,NE,55,0.0,0.0,72,-99.99,,,-99.99,,2013-04-17 02:52:00,
2013-04-16 22:02:00,49.0,41.0,-100.00,NE,55,0.0,0.0,72,-99.99,,,-99.99,,2013-04-17 03:02:00,
2013-04-16 22:12:00,49.0,41.0,-100.00,ENE,60,0.0,0.0,74,-99.99,,,-99.99,,2013-04-17 03:12:00,
2013-04-16 22:22:00,49.0,41.0,-100.00,NE,55,0.0,0.0,74,-99.99,,,-99.99,,2013-04-17 03:22:00,
2013-04-16 22:33:00,49.0,41.0,-100.00,NE,55,0.0,0.0,74,-99.99,,,-99.99,,2013-04-17 03:33:00,
2013-04-16 22:42:00,49.0,41.0,-100.00,ENE,60,0.0,0.0,73,-99.99,,,-99.99,,2013-04-17 03:42:00,
2013-04-16 22:53:00,49.0,41.0,-100.00,ENE,75,0.0,0.0,73,-99.99,,,-99.99,,2013-04-17 03:53:00,
2013-04-16 23:03:00,49.0,41.0,-100.00,ENE,75,0.0,0.0,73,-99.99,,,-99.99,,2013-04-17 04:03:00,
2013-04-16 23:13:00,50.0,41.0,-100.00,ENE,75,0.0,0.0,73,-99.99,,,-99.99,,2013-04-17 04:13:00,
2013-04-16 23:22:00,50.0,41.0,-100.00,East,85,0.0,0.0,73,-99.99,,,-99.99,,2013-04-17 04:22:00,
2013-04-16 23:33:00,50.0,41.0,-100.00,East,85,0.0,0.0,73,-99.99,,,-99.99,,2013-04-17 04:33:00,
2013-04-16 23:42:00,50.0,41.0,-100.00,East,90,0.0,0.0,73,-99.99,,,-99.99,,2013-04-17 04:42:00,
2013-04-16 23:52:00,50.0,41.0,-100.00,ENE,70,0.0,0.0,73,-99.99,,,-99.99,,2013-04-17 04:52:00,